Hourly Data Report for October 14, 2014

All times are specified in Local Standard Time (LST). Add 1 hour to adjust for Daylight Saving Time where and when it is observed.

IQALUIT CLIMATE
NUNAVUT

63°44'50.000" N
68°32'40.000" W
33.50 m
2402592
71321
XFB

Download Data

Hourly Data (October 2014)
Hourly Data Report for October 14, 2014
Temp Definition
°C
Dew Point Temp Definition
°C
Rel Hum Definition
%
Wind Dir Definition
10's deg

Wind Spd Definition
km/h
Visibility Definition
km
Stn Press Definition
kPa
Hmdx Definition


Wind Chill Definition


Weather Definition


TIME
00:00 -1.1 -2.8 88 34 6   100.30   -3 LegendNANA
01:00 -1.2 -2.7 89 34 7   100.30   -4 LegendNANA
02:00 -1.1 -2.7 89 32 11   100.29   -5 LegendNANA
03:00 -1.1 -2.9 88 33 12   100.29   -5 LegendNANA
04:00 -0.4 -2.6 85 32 5   100.27   -2 LegendNANA
05:00 0.7 -2.4 80 3 3   100.26     LegendNANA
06:00 1.1 -2.6 76 5 9   100.25     LegendNANA
07:00 1.1 -2.7 76 5 11   100.27     LegendNANA
08:00 1.5 -2.6 74 5 12   100.28     LegendNANA
09:00 2.0 -2.5 72 7 6   100.28     LegendNANA
10:00 3.0 -2.7 66 31 4   100.27     LegendNANA
11:00 2.6 -1.8 73 34 12   100.26     LegendNANA
12:00 2.0 -0.8 82 33 15   100.27     LegendNANA
13:00 1.0 -1.3 85 33 17   100.29     LegendNANA
14:00 0.0 -2.0 86 31 19   100.30   -5 LegendNANA
15:00 -0.2 -2.2 86 34 19   100.33   -5 LegendNANA
16:00 -0.5 -2.6 86 34 21   100.34   -6 LegendNANA
17:00 -1.4 -3.5 86 33 17   100.35   -7 LegendNANA
18:00 -2.3 -4.1 88 34 21   100.36   -8 LegendNANA
19:00 -2.5 -4.5 86 35 17   100.38   -8 LegendNANA
20:00 -3.2 -4.9 88 32 18   100.35   -9 LegendNANA
21:00 -3.7 -5.2 90 31 21   100.33   -10 LegendNANA
22:00 -5.0 -6.3 91 33 23   100.30   -12 LegendNANA
23:00 -5.1 -6.5 90 33 23   100.31   -12 LegendNANA

Notes on Data Quality.

Legend

  • E = Estimated
  • M = Missing
  • NA = Not Available
  • ‡ = Partner data that is not subject to review by the National Climate Archives
Date modified: